Regional Weather Roundup
Issued by NWS

Home | Current Version | Previous Version | Text Only | Print | Product List | Glossary Off
Versions: 1 2 3 4 5 6 7 8 9 10 11 12 13 14 15 16 17 18 19 20 21 22 23 24 25 26 27 28 29 30 31 32 33 34 35 36 37 38 39 40 41 42 43 44 45 46 47 48 49 50

000
ASUS43 KOAX 280310
RWRNE

WEATHER ROUNDUP FOR NEBRASKA
NATIONAL WEATHER SERVICE OMAHA NE
1000 PM CDT TUE JUN 27 2017

NOTES: SATELLITE DATA IS BEING USED TO AUGMENT CLOUD COVER ABOVE
       12000 FEET.
       "FAIR" INDICATES FEW OR NO CLOUDS BELOW 12,000 FEET WITH NO
       SIGNIFICANT WEATHER AND/OR OBSTRUCTIONS TO VISIBILITY.

  * THESE STATIONS DO NOT REPORT WEATHER SUCH AS RAIN...SNOW OR FOG.

NEZ001>004-019>022-054>056-280400-
NEBRASKA PANHANDLE

CITY           SKY/WX    TMP DP  RH WIND       PRES   REMARKS
SCOTTSBLUFF    CLOUDY    72  49  44 N10       29.75F
ALLIANCE       CLOUDY    64  54  69 N21G29    29.75F
CHADRON        CLOUDY    66  60  81 SE7       29.71F
GORDON         FAIR      64  57  77 SE3       29.72F THUNDER
KIMBALL        CLOUDY    69  43  38 N16       29.85R
SIDNEY         CLOUDY    65  53  65 N20G30    29.82R
$$

NEZ057>060-069>072-079>082-280400-
SOUTHWEST NEBRASKA

CITY           SKY/WX    TMP DP  RH WIND       PRES   REMARKS
NORTH PLATTE   CLOUDY    66  60  81 SE16      29.66F
IMPERIAL       CLOUDY    78  44  29 CALM      29.64F
LEXINGTON      LGT RAIN  75  57  53 NW41G61   29.73R
MCCOOK         CLOUDY    82  55  39 NW9       29.69R
OGALLALA       CLOUDY    76  51  40 CALM      29.64F
$$

NEZ005>010-023>029-035>040-094-280400-
NORTH CENTRAL NEBRASKA

CITY           SKY/WX    TMP DP  RH WIND       PRES   REMARKS
VALENTINE      CLOUDY    76  49  38 NW13      29.70R
AINSWORTH      LGT RAIN  77  66  68 N5        29.70R
BROKEN BOW     TSTM      68  57  68 W23G32    29.77S
O`NEILL        LGT RAIN  77  68  75 S13       29.67R
ORD            CLOUDY    78  67  68 SE15G22   29.64F
THEDFORD       CLOUDY    79  50  35 S22G30    29.67R
$$

NEZ041-046>049-061>064-073>077-083>087-280400-
SOUTH CENTRAL NEBRASKA

CITY           SKY/WX    TMP DP  RH WIND       PRES   REMARKS
GRAND ISLAND   CLOUDY    79  72  79 SE22G29   29.67F
AURORA         CLOUDY    78  71  79 SE17G26   29.69F
HASTINGS       MOCLDY    82  65  56 S13G21    29.69F
HEBRON         CLOUDY    81  69  68 S15G24    29.74R
HOLDREGE       CLOUDY    84  59  42 S22G35    29.65F
KEARNEY *      CLOUDY    82  64  54 S18G24    29.66F
YORK           CLOUDY    77  70  78 S20G26    29.70F
$$

NEZ011>018-030>034-042>045-280400-
NORTHEAST NEBRASKA

CITY           SKY/WX    TMP DP  RH WIND       PRES   REMARKS
NORFOLK        PTCLDY    75  65  70 SE17G29   29.69F
ALBION         CLOUDY    78  67  69 SE14G21   29.69S
BLAIR          CLOUDY    77  66  69 SE13G23   29.78S
FREMONT        CLOUDY    77  66  68 SE16G22   29.76S
TEKAMAH        CLOUDY    76  63  64 SE22G28   29.75F
WAYNE          CLOUDY    76  66  72 SE17G24   29.71S
$$

NEZ050>053-065>068-078-088>093-280400-
SOUTHEAST NEBRASKA

CITY           SKY/WX    TMP DP  RH WIND       PRES   REMARKS
LINCOLN        PTCLDY    77  66  68 S21G29    29.75R
OMAHA EPPLEY   CLOUDY    77  65  66 SE21      29.78S
BEATRICE       CLOUDY    77  67  72 SE16G22   29.76F
FALLS CITY     CLEAR     74  66  76 SE15      29.82S
NEBRASKA CITY  PTCLDY    75  68  80 S12G18    29.81R
PLATTSMOUTH    CLOUDY    76  65  69 CALM      29.80R
$$

NEZ044-045-051>053-067-280400-
OMAHA AREA

CITY           SKY/WX    TMP DP  RH WIND       PRES   REMARKS
OMAHA EPPLEY   CLOUDY    77  65  66 SE21      29.78S
BLAIR          CLOUDY    77  66  69 SE13G23   29.78S
FREMONT        CLOUDY    77  66  68 SE16G22   29.76S
MILLARD        CLOUDY    79  69  70 SE15G24   29.77S
OFFUTT AFB     CLOUDY    76  65  68 SE15      29.78R
PLATTSMOUTH    CLOUDY    76  65  69 CALM      29.80R
WAHOO          CLOUDY    78  65  65 SE21G26   29.76R
$$



USA.gov is the U.S. government's official web portal to all federal, state and local government web resources and services.